This is the latest recevied weather packets stored in our database for station/object K0NV. If no packets are shown the sender has not sent any weather packets the latest 10 day(s).
| Time | Temp. | Humidity | Pressure | Rain* | Wind** | Luminosity | Snow |
|---|---|---|---|---|---|---|---|
| 1788556423 | 36.11° C | 42% | 1015.3 hPa | 0 mm | - | 86 W/m² | - |
| 1788556118 | 36.67° C | 42% | 1015.4 hPa | 0 mm | - | 92 W/m² | - |
| 1788555812 | 36.67° C | 43% | 1015.6 hPa | 0 mm | - | 71 W/m² | - |
| 1788555509 | 35.56° C | 43% | 1015.5 hPa | 0 mm | - | 170 W/m² | - |
| 1788555204 | 36.11° C | 44% | 1015.6 hPa | 0 mm | - | 77 W/m² | - |
| 1788554901 | 36.11° C | 43% | 1015.7 hPa | 0 mm | - | 102 W/m² | - |
| 1788554596 | 36.11° C | 44% | 1015.5 hPa | 0 mm | - | 130 W/m² | - |
| 1788554293 | 36.11° C | 44% | 1015.6 hPa | 0 mm | - | 401 W/m² | - |
| 1788553989 | 36.67° C | 43% | 1015.7 hPa | 0 mm | - | 87 W/m² | - |
| 1788553684 | 36.11° C | 44% | 1015.8 hPa | 0 mm | - | 86 W/m² | - |
| 1788553381 | 36.11° C | 44% | 1015.8 hPa | 0 mm | - | 67 W/m² | - |
| 1788553076 | 36.67° C | 41% | 1015.9 hPa | 0 mm | - | 87 W/m² | - |
| 1788552775 | 36.11° C | 41% | 1015.8 hPa | 0 mm | - | 146 W/m² | - |
| 1788552470 | 36.11° C | 42% | 1015.8 hPa | 0 mm | - | 122 W/m² | - |
| 1788552164 | 36.11° C | 43% | 1015.9 hPa | 0 mm | - | 253 W/m² | - |
| 1788551864 | 35.56° C | 44% | 1016.3 hPa | 0 mm | - | 253 W/m² | - |
| 1788551562 | 35.56° C | 44% | 1016.2 hPa | 0 mm | - | 229 W/m² | - |
| 1788551258 | 35.56° C | 44% | 1016.1 hPa | 0 mm | - | 69 W/m² | - |
| 1788550957 | 36.11° C | 45% | 1016.2 hPa | 0 mm | - | 77 W/m² | - |
| 1788550652 | 36.11° C | 44% | 1016.5 hPa | 0 mm | - | 95 W/m² | - |
| 1788550348 | 36.11° C | 45% | 1016.4 hPa | 0 mm | - | 88 W/m² | - |
| 1788550043 | 36.11° C | 45% | 1016.6 hPa | 0 mm | - | 140 W/m² | - |
| 1788549738 | 35.56° C | 45% | 1016.5 hPa | 0 mm | - | 99 W/m² | - |
| 1788549435 | 36.11° C | 44% | 1016.4 hPa | 0 mm | - | 127 W/m² | - |
| 1788549131 | 35.56° C | 46% | 1016.6 hPa | 0 mm | - | 97 W/m² | - |
* Rain latest hour (hover to see other rain measurements)
** Current wind speed in m/s (hover to see current wind gust speed)